SCOUT X-4 R/B, 1358

Orbit data source: Space-Track

SCOUT X-4 R/B, 1358 is space debris in LEO originally from a launch on Thu, 29 Apr 1965 UTC launched from the Wallops Island (WLPIS). Debris objects in space refer to the collection of defunct objects orbiting the Earth. Examples of debris include non-operational satellites, rocket bodies, and fragments generated from explosions, collisions, or faulty payload assembly.

Loading next visibility...
Identifier
1358, 1965-032B
Orbit
LEO
Country
Flag of USUS
Related business
Manufacturer
ABL
Mission
Spacecraft
Bus & Motor
ALTAIR, Unknown motor
Mass
33 kg wet, 33 kg dry
Launch date (UTC)
1965-04-29 (61 years ago)
Launch vehicle
Unknown
Launch site
Wallops Island (WLPIS)
Object type
Payload
Rocket body
Debris
Shape & HBR
CYL, 1.1 m
Radar Cross Section
Medium (>0.1 m² and <1 m²)

Expand to show TLE details & history
Last TLE update: 13 hours ago

TLE from 13 hours ago
0 SCOUT X-4 R/B
1 01358U 65032B   26264.34990302 -.00000063  00000-0  34450-4 0  9993
2 01358  41.1919  16.9929 0243433   2.5850 357.6107 13.38253279   371
Epoch: 2026-09-21T08:23Z
TLE epoch observation values (Epoch: 2026-09-21T08:23:51.620Z)
Latitude
-0.00009°
Longitude
-109.20328°
Altitude
933.167 km
Speed
7.476 km/s
True Right ascension
01h 07m 58s
True Declination
0° 00' 00"
Sunlit
Object was in full shadow at epoch
Visualization orbit readout
Latitude
Unknown
Longitude
Unknown
Altitude
Unknown
Speed
Unknown
Apparent Right ascension
Unknown
Apparent Declination
Unknown
Sunlit
N/A
Visualization observer readout
Local Sidereal Time
14:52:27
Azimuth
Unknown
Elevation
Unknown
Doppler factor
Unknown
Orbital elements
Apogee altitude
1,300.33 km
Perigee altitude
935.376 km
Semi-major axis
7,495.99 km
Eccentricity
0.02434
Inclination
41.1919°
RAAN
16.9929°
Arg. of periapsis
2.585°
True anomaly
357.49077°
Mean anomaly
357.6107°
Eccentric anomaly
357.5511°
Mean motion
3.34426 °/min
Orbital period
107.65 mins
BSTAR
0.00003445
Loading maneuver chart data...
Computing Atmospheric mass density...
Loading historical data...
Loading historical data...
Loading historical data...
Loading historical data...
Loading historical data...
Loading historical data...
Loading historical data...
Other satellites on launch #32 in the year 1965 (1965-04-29 UTC)

Documentation

Showing up to 5 results
|